Regional Weather Roundup
Issued by NWS

Home | Current Version | Previous Version | Graphics & Text | Print | Product List | Glossary On
Versions: 1 2 3 4 5 6 7 8 9 10 11 12 13 14 15 16 17 18 19 20 21 22 23 24 25 26 27 28 29 30 31 32 33 34 35 36 37 38 39 40 41 42 43 44 45 46 47 48 49 50
000
ASUS43 KOAX 250810
RWRNE

WEATHER ROUNDUP FOR NEBRASKA
NATIONAL WEATHER SERVICE OMAHA NE
300 AM CDT THU MAY 25 2017

NOTES: SATELLITE DATA IS BEING USED TO AUGMENT CLOUD COVER ABOVE
       12000 FEET.
       "FAIR" INDICATES FEW OR NO CLOUDS BELOW 12,000 FEET WITH NO
       SIGNIFICANT WEATHER AND/OR OBSTRUCTIONS TO VISIBILITY.

  * THESE STATIONS DO NOT REPORT WEATHER SUCH AS RAIN...SNOW OR FOG.

NEZ001>004-019>022-054>056-250900-
NEBRASKA PANHANDLE

CITY           SKY/WX    TMP DP  RH WIND       PRES   REMARKS
SCOTTSBLUFF    CLOUDY    59  42  53 W5        29.45F
ALLIANCE       CLEAR     52  46  80 NW5       29.46R
CHADRON        CLEAR     57  50  77 SW10      29.41F
GORDON         FAIR      55  46  69 SW13      29.41R
KIMBALL        PTCLDY    55  42  62 W13G18    29.53R
SIDNEY         CLEAR     54  44  69 SW5       29.48F
$$

NEZ057>060-069>072-079>082-250900-
SOUTHWEST NEBRASKA

CITY           SKY/WX    TMP DP  RH WIND       PRES   REMARKS
NORTH PLATTE   CLEAR     54  44  69 SE12G21   29.51F
IMPERIAL       CLEAR     57  45  64 S16G24    29.49F
LEXINGTON      CLEAR     53  45  73 SE13G18   29.56F
MCCOOK         CLEAR     53  45  74 S10       29.53F
OGALLALA       CLEAR     54  46  73 CALM      29.50F
$$

NEZ005>010-023>029-035>040-094-250900-
NORTH CENTRAL NEBRASKA

CITY           SKY/WX    TMP DP  RH WIND       PRES   REMARKS
VALENTINE      PTCLDY    57  41  55 S20G26    29.42F
AINSWORTH      CLEAR     54  44  69 S23G29    29.44F
BROKEN BOW     CLEAR     53  44  71 S17G28    29.53F
O`NEILL        CLOUDY    55  43  63 S17       29.52F
ORD            MOCLDY    53  43  68 SE16      29.55F
THEDFORD       PTCLDY    55  44  64 S22G31    29.48F
$$

NEZ041-046>049-061>064-073>077-083>087-250900-
SOUTH CENTRAL NEBRASKA

CITY           SKY/WX    TMP DP  RH WIND       PRES   REMARKS
GRAND ISLAND   CLEAR     53  45  74 S15       29.59F
AURORA         CLEAR     53  44  73 S10       29.61F
HASTINGS       CLEAR     53  44  71 S14       29.60F
HEBRON         CLEAR     51  45  79 S5        29.64S
HOLDREGE       PTCLDY    52  43  70 S17       29.57F
KEARNEY *      PTCLDY    54  43  66 S18       29.59S
YORK           CLEAR     52  45  76 S9        29.62F
$$

NEZ011>018-030>034-042>045-250900-
NORTHEAST NEBRASKA

CITY           SKY/WX    TMP DP  RH WIND       PRES   REMARKS
NORFOLK        CLEAR     52  42  69 SE12      29.59F
ALBION         CLEAR     51  44  77 SE8       29.59F
BLAIR          CLEAR     53  47  80 SE6       29.65F
FREMONT        CLEAR     52  45  76 SE6       29.64F
TEKAMAH        CLEAR     48  32  53 SE6       29.65F
WAYNE          CLEAR     51  44  79 S10       29.61F
$$

NEZ050>053-065>068-078-088>093-250900-
SOUTHEAST NEBRASKA

CITY           SKY/WX    TMP DP  RH WIND       PRES   REMARKS
LINCOLN        CLEAR     48  43  82 S7        29.65F
OMAHA EPPLEY   CLEAR     52  45  77 SE3       29.66F
BEATRICE       CLEAR     51  46  82 SE3       29.65F
FALLS CITY     CLEAR     50  47  89 SE5       29.67F
NEBRASKA CITY  CLEAR     50  45  83 S6        29.67F
PLATTSMOUTH    CLEAR     53  49  84 SE7       29.67S
$$

NEZ044-045-051>053-067-250900-
OMAHA AREA

CITY           SKY/WX    TMP DP  RH WIND       PRES   REMARKS
OMAHA EPPLEY   CLEAR     52  45  77 SE3       29.66F
BLAIR          CLEAR     53  47  80 SE6       29.65F
FREMONT        CLEAR     52  45  76 SE6       29.64F
MILLARD        CLEAR     51  48  90 E3        29.65F
OFFUTT AFB     CLEAR     46  45  96 E3        29.65F
PLATTSMOUTH    CLEAR     53  49  84 SE7       29.67S
WAHOO          FAIR      48  44  85 SE7       29.64F
$$




USA.gov is the U.S. government's official web portal to all federal, state and local government web resources and services.